AVA8 SKBO-KMIA

Flight info

Callsign AVA8
Flight time 1h 1m
Altitude 36000
Route TOBKI4R VASIL UL423 PULOX DCT ARORO UN653 PML/N0465F350 UM795 COLBY/N0461F360 DCT EPSIM UM779 ZEUSS VIICE2
Aircraft A320/M-SDE3FGHIRWY/LB1

Departure

Time 2026-05-06 22:38
Airport El Dorado International Airport (SKBO)

Arrival

Time 2026-05-06 23:39
Airport Miami International Airport (KMIA)
Time Latitude Longitude Altitude Speed Heading
2026-05-06 22:35 4.70965 -74.15039 8366 ft 23 kts 307°
2026-05-06 22:35 4.71060 -74.15165 8366 ft 22 kts 306°
2026-05-06 22:35 4.71160 -74.15216 8367 ft 16 kts 351°
2026-05-06 22:36 4.71211 -74.15222 8366 ft 0 kts 353°
2026-05-06 22:36 4.71212 -74.15222 8366 ft 1 kts 353°
2026-05-06 22:36 4.71247 -74.15226 8366 ft 9 kts 352°
2026-05-06 22:36 4.71321 -74.15205 8366 ft 11 kts 54°
2026-05-06 22:37 4.71269 -74.15110 8365 ft 33 kts 127°
2026-05-06 22:37 4.70990 -74.14739 8365 ft 99 kts 127°
2026-05-06 22:37 4.70454 -74.14032 8365 ft 153 kts 127°
2026-05-06 22:37 4.69730 -74.13079 8645 ft 178 kts 127°
2026-05-06 22:38 4.68939 -74.12148 9521 ft 176 kts 146°
2026-05-06 22:38 4.67761 -74.11816 10044 ft 184 kts 185°
2026-05-06 22:38 4.66471 -74.12153 10263 ft 203 kts 199°
2026-05-06 22:38 4.65182 -74.12900 10391 ft 227 kts 220°
2026-05-06 22:39 4.64240 -74.14245 10534 ft 248 kts 245°
2026-05-06 22:39 4.63585 -74.15870 10902 ft 253 kts 247°
2026-05-06 22:39 4.62914 -74.17513 11313 ft 256 kts 245°
2026-05-06 22:39 4.62227 -74.19185 11662 ft 261 kts 245°
2026-05-06 22:40 4.61566 -74.20889 12053 ft 265 kts 253°
2026-05-06 22:40 4.60945 -74.23882 12265 ft 294 kts 257°
2026-05-06 22:40 4.60015 -74.30320 13463 ft 328 kts 267°
2026-05-06 22:40 4.59690 -74.39870 15553 ft 343 kts 278°
2026-05-06 22:41 4.71037 -74.55196 19539 ft 354 kts 310°
2026-05-06 22:41 4.77905 -74.62345 21188 ft 361 kts 326°
2026-05-06 22:41 4.86098 -74.68421 22705 ft 378 kts 325°
2026-05-06 22:42 4.94337 -74.75775 23319 ft 419 kts 307°
2026-05-06 22:42 4.99868 -74.86615 23862 ft 450 kts 297°
2026-05-06 22:42 5.05472 -74.97985 24818 ft 460 kts 297°
2026-05-06 22:42 5.11122 -75.09616 25957 ft 466 kts 297°
2026-05-06 22:43 5.17479 -75.20974 27060 ft 470 kts 313°
2026-05-06 22:43 5.26256 -75.30794 28000 ft 477 kts 312°
2026-05-06 22:43 5.35097 -75.40855 28764 ft 483 kts 313°
2026-05-06 22:43 5.44086 -75.51004 29562 ft 488 kts 313°
2026-05-06 22:44 5.53061 -75.61171 30658 ft 484 kts 312°
2026-05-06 22:44 5.61954 -75.71237 31737 ft 481 kts 311°
2026-05-06 22:44 5.70817 -75.81247 32865 ft 477 kts 315°
2026-05-06 22:44 5.81254 -75.89444 33958 ft 474 kts 322°
2026-05-06 22:45 5.91641 -75.97552 34979 ft 470 kts 323°
2026-05-06 22:45 6.01912 -76.05506 35966 ft 465 kts 323°
2026-05-06 22:45 6.12179 -76.13462 35960 ft 467 kts 323°
2026-05-06 22:45 6.22325 -76.21339 35848 ft 472 kts 323°
2026-05-06 22:46 6.32660 -76.29362 35944 ft 466 kts 323°
2026-05-06 22:46 6.53317 -76.45410 35901 ft 473 kts 323°
2026-05-06 22:46 6.63667 -76.53453 35790 ft 472 kts 323°
2026-05-06 22:47 6.73937 -76.61453 35912 ft 461 kts 322°
2026-05-06 22:47 6.94417 -76.77404 35810 ft 468 kts 322°
2026-05-06 22:48 7.14940 -76.93398 35865 ft 466 kts 322°
2026-05-06 22:48 7.35428 -77.09395 35868 ft 466 kts 322°
2026-05-06 22:49 7.55917 -77.25410 35879 ft 466 kts 323°
2026-05-06 22:49 7.75953 -77.41871 35883 ft 464 kts 312°
2026-05-06 22:50 7.93249 -77.61074 35899 ft 460 kts 313°
2026-05-06 22:50 8.10436 -77.80213 35881 ft 459 kts 313°
2026-05-06 22:51 8.27447 -77.99161 35892 ft 456 kts 312°
2026-05-06 22:51 8.46978 -78.14210 35846 ft 452 kts 354°
2026-05-06 22:52 8.72108 -78.15708 35883 ft 452 kts 356°
2026-05-06 22:52 8.97274 -78.17178 35891 ft 452 kts 356°
2026-05-06 22:53 9.22350 -78.18635 35875 ft 451 kts 356°
2026-05-06 22:53 9.47240 -78.20122 35878 ft 452 kts 355°
2026-05-06 22:54 9.72457 -78.21605 35866 ft 453 kts 355°
2026-05-06 22:54 9.97623 -78.23076 35885 ft 454 kts 355°
2026-05-06 22:55 10.22863 -78.24579 35869 ft 454 kts 355°
2026-05-06 22:55 10.48060 -78.26063 35878 ft 453 kts 355°
2026-05-06 22:56 10.73191 -78.27568 35881 ft 452 kts 355°
2026-05-06 22:56 10.98367 -78.29049 35880 ft 453 kts 355°
2026-05-06 22:57 11.23379 -78.30541 35883 ft 453 kts 355°
2026-05-06 22:57 11.48540 -78.32048 35911 ft 453 kts 355°
2026-05-06 22:58 11.73672 -78.33534 35908 ft 452 kts 355°
2026-05-06 22:58 11.98814 -78.35048 35895 ft 452 kts 354°
2026-05-06 22:59 12.23907 -78.36548 35906 ft 451 kts 355°
2026-05-06 22:59 12.48914 -78.38041 35900 ft 451 kts 355°
2026-05-06 23:00 12.73976 -78.39567 35934 ft 448 kts 356°
2026-05-06 23:00 12.98860 -78.41061 35917 ft 447 kts 358°
2026-05-06 23:01 13.23734 -78.42555 35924 ft 448 kts 358°
2026-05-06 23:01 13.48435 -78.44052 35922 ft 447 kts 358°
2026-05-06 23:02 13.73287 -78.45565 35927 ft 447 kts 359°
2026-05-06 23:02 13.98148 -78.47084 35940 ft 447 kts 358°
2026-05-06 23:03 14.22992 -78.48580 35936 ft 447 kts 359°
2026-05-06 23:03 14.47834 -78.50107 35947 ft 447 kts 359°
2026-05-06 23:04 14.72754 -78.51628 35949 ft 447 kts 358°
2026-05-06 23:04 14.97605 -78.53158 35962 ft 447 kts 358°
2026-05-06 23:05 15.22229 -78.50985 35970 ft 444 kts
2026-05-06 23:05 15.46837 -78.48419 35960 ft 444 kts
2026-05-06 23:06 15.71429 -78.45829 35982 ft 443 kts
2026-05-06 23:06 15.91828 -78.43708 35979 ft 443 kts
2026-05-06 23:07 16.20268 -78.40724 35980 ft 441 kts
2026-05-06 23:07 16.44679 -78.38154 36002 ft 440 kts
2026-05-06 23:08 16.69027 -78.35572 35994 ft 438 kts
2026-05-06 23:08 16.89202 -78.33442 36002 ft 438 kts
2026-05-06 23:09 17.13419 -78.30861 35999 ft 437 kts
2026-05-06 23:09 17.37599 -78.28281 36004 ft 436 kts
2026-05-06 23:10 17.61709 -78.25721 36008 ft 435 kts
2026-05-06 23:10 17.85812 -78.23129 36013 ft 435 kts
2026-05-06 23:11 18.09742 -78.20561 36021 ft 435 kts
2026-05-06 23:11 18.33827 -78.17972 36030 ft 434 kts
2026-05-06 23:12 18.57839 -78.15378 36028 ft 433 kts
2026-05-06 23:12 18.81799 -78.12784 36022 ft 432 kts
2026-05-06 23:13 19.05771 -78.10197 36030 ft 432 kts
2026-05-06 23:13 19.29668 -78.07580 36033 ft 431 kts
2026-05-06 23:14 19.53541 -78.04984 36040 ft 431 kts
2026-05-06 23:14 19.77200 -78.02374 36040 ft 430 kts
2026-05-06 23:14 19.89057 -78.03385 36032 ft 428 kts 350°
2026-05-06 23:15 20.00793 -78.05458 36033 ft 428 kts 351°
2026-05-06 23:15 20.24312 -78.09728 36048 ft 428 kts 350°
2026-05-06 23:16 20.47814 -78.13982 36050 ft 428 kts 350°
2026-05-06 23:16 20.71295 -78.18246 36044 ft 428 kts 350°
2026-05-06 23:17 20.94764 -78.22526 36049 ft 428 kts 349°
2026-05-06 23:17 21.18269 -78.26833 36061 ft 428 kts 349°
2026-05-06 23:18 21.41773 -78.31166 36070 ft 428 kts 349°
2026-05-06 23:18 21.65250 -78.35480 36064 ft 427 kts 349°
2026-05-06 23:19 21.88678 -78.39815 36071 ft 427 kts 349°
2026-05-06 23:19 22.12044 -78.44148 36066 ft 426 kts 349°
2026-05-06 23:20 22.35234 -78.48473 36067 ft 425 kts 349°
2026-05-06 23:20 22.58575 -78.52822 36066 ft 425 kts 348°
2026-05-06 23:21 22.81909 -78.57200 36068 ft 425 kts 348°
2026-05-06 23:21 23.05217 -78.61588 36070 ft 425 kts 348°
2026-05-06 23:22 23.28532 -78.65998 36064 ft 425 kts 348°
2026-05-06 23:22 23.51854 -78.70407 36063 ft 425 kts 348°
2026-05-06 23:23 23.75182 -78.74847 36077 ft 425 kts 347°
2026-05-06 23:23 23.98470 -78.79354 36065 ft 424 kts 342°
2026-05-06 23:23 24.08722 -78.85391 36068 ft 419 kts 328°
2026-05-06 23:24 24.18707 -78.91934 36073 ft 419 kts 328°
2026-05-06 23:24 24.38712 -79.05216 36077 ft 419 kts 328°
2026-05-06 23:25 24.58589 -79.18443 35037 ft 422 kts 327°
2026-05-06 23:25 24.68666 -79.25183 34156 ft 425 kts 327°
2026-05-06 23:25 24.78958 -79.32067 31363 ft 450 kts 328°
2026-05-06 23:25 24.89759 -79.39295 27920 ft 441 kts 328°
2026-05-06 23:26 25.00123 -79.46263 24890 ft 426 kts 329°
2026-05-06 23:26 25.10123 -79.53009 22552 ft 401 kts 329°
2026-05-06 23:26 25.19093 -79.59063 21086 ft 369 kts 329°
2026-05-06 23:26 25.27794 -79.64939 18973 ft 364 kts 329°
2026-05-06 23:27 25.36336 -79.70721 16948 ft 357 kts 330°
2026-05-06 23:27 25.42909 -79.78806 15126 ft 353 kts 308°
2026-05-06 23:27 25.48571 -79.87555 13976 ft 348 kts 309°
2026-05-06 23:27 25.54206 -79.96332 12047 ft 342 kts 308°
2026-05-06 23:28 25.59358 -80.04418 11292 ft 305 kts 308°
2026-05-06 23:28 25.64190 -80.11973 10090 ft 302 kts 308°
2026-05-06 23:28 25.65371 -80.13877 9735 ft 300 kts 303°
2026-05-06 23:28 25.66296 -80.15953 9344 ft 299 kts 297°
2026-05-06 23:29 25.67163 -80.18010 8959 ft 298 kts 297°
2026-05-06 23:29 25.68039 -80.20080 8598 ft 295 kts 298°
2026-05-06 23:29 25.68910 -80.22131 8255 ft 293 kts 297°
2026-05-06 23:29 25.69773 -80.24162 7901 ft 290 kts 298°
2026-05-06 23:30 25.70612 -80.26181 7550 ft 287 kts 294°
2026-05-06 23:30 25.71107 -80.28321 7203 ft 287 kts 279°
2026-05-06 23:30 25.71125 -80.30529 6875 ft 286 kts 268°
2026-05-06 23:30 25.71011 -80.32723 6532 ft 283 kts 268°
2026-05-06 23:31 25.70908 -80.34880 6187 ft 278 kts 269°
2026-05-06 23:31 25.70828 -80.37010 5793 ft 276 kts 269°
2026-05-06 23:31 25.70744 -80.39121 5513 ft 272 kts 269°
2026-05-06 23:31 25.70653 -80.41213 5091 ft 272 kts 268°
2026-05-06 23:32 25.70571 -80.43303 4680 ft 271 kts 269°
2026-05-06 23:32 25.70488 -80.45379 4330 ft 267 kts 269°
2026-05-06 23:32 25.70416 -80.47429 4025 ft 266 kts 269°
2026-05-06 23:32 25.70372 -80.49486 3709 ft 267 kts 272°
2026-05-06 23:33 25.70840 -80.51449 3394 ft 263 kts 300°
2026-05-06 23:33 25.72076 -80.52884 3075 ft 257 kts 330°
2026-05-06 23:33 25.73740 -80.53517 2763 ft 251 kts 350°
2026-05-06 23:33 25.75430 -80.53838 2443 ft 249 kts 351°
2026-05-06 23:34 25.77142 -80.53741 2141 ft 241 kts 26°
2026-05-06 23:34 25.78309 -80.52604 2053 ft 222 kts 66°
2026-05-06 23:34 25.78659 -80.50973 2012 ft 219 kts 85°
2026-05-06 23:34 25.78825 -80.49282 1969 ft 220 kts 86°
2026-05-06 23:35 25.78649 -80.47613 1919 ft 215 kts 109°
2026-05-06 23:35 25.78211 -80.46098 1864 ft 196 kts 109°
2026-05-06 23:35 25.78049 -80.44660 1847 ft 178 kts 90°
2026-05-06 23:35 25.78106 -80.43381 1820 ft 152 kts 90°
2026-05-06 23:36 25.78155 -80.42271 1789 ft 138 kts 90°
2026-05-06 23:36 25.78199 -80.41217 1712 ft 135 kts 91°
2026-05-06 23:36 25.78243 -80.40189 1576 ft 134 kts 90°
2026-05-06 23:36 25.78286 -80.39156 1424 ft 132 kts 91°
2026-05-06 23:37 25.78329 -80.38135 1260 ft 132 kts 89°
2026-05-06 23:37 25.78372 -80.37123 1093 ft 131 kts 91°
2026-05-06 23:37 25.78414 -80.36111 929 ft 132 kts 91°
2026-05-06 23:37 25.78457 -80.35094 788 ft 130 kts 87°
2026-05-06 23:38 25.78500 -80.34081 602 ft 133 kts 87°
2026-05-06 23:38 25.78545 -80.33042 400 ft 135 kts 87°
2026-05-06 23:38 25.78600 -80.32022 250 ft 133 kts 89°
2026-05-06 23:38 25.78629 -80.31015 90 ft 131 kts 88°
2026-05-06 23:39 25.78670 -80.30055 15 ft 112 kts 87°
2026-05-06 23:39 25.78698 -80.29384 15 ft 62 kts 88°
2026-05-06 23:39 25.78712 -80.29029 15 ft 40 kts 86°
2026-05-06 23:39 25.78723 -80.28760 16 ft 33 kts 87°
2026-05-06 23:40 25.78734 -80.28509 14 ft 32 kts 87°
2026-05-06 23:40 25.78743 -80.28259 16 ft 31 kts 88°
2026-05-06 23:40 25.78755 -80.28019 16 ft 31 kts 87°
2026-05-06 23:40 25.78764 -80.27790 16 ft 20 kts 86°
2026-05-06 23:41 25.78772 -80.27644 15 ft 20 kts 88°
2026-05-06 23:41 25.78845 -80.27555 15 ft 18 kts
2026-05-06 23:41 25.78904 -80.27521 17 ft 10 kts 66°
2026-05-06 23:41 25.78921 -80.27438 15 ft 12 kts 82°
2026-05-06 23:42 25.78925 -80.27333 15 ft 15 kts 88°
2026-05-06 23:42 25.78978 -80.27233 15 ft 16 kts 37°
2026-05-06 23:42 25.79078 -80.27223 15 ft 11 kts 358°
2026-05-06 23:42 25.79152 -80.27227 15 ft 10 kts 357°
2026-05-06 23:43 25.79218 -80.27231 15 ft 9 kts 357°
2026-05-06 23:43 25.79244 -80.27252 15 ft 4 kts 267°
2026-05-06 23:43 25.79244 -80.27281 15 ft 3 kts 272°
2026-05-06 23:43 25.79245 -80.27305 15 ft 3 kts 272°
2026-05-06 23:44 25.79245 -80.27308 15 ft 0 kts 272°